Regional Weather Roundup
Issued by NWS

Home | Current Version | Previous Version | Text Only | Print | Product List | Glossary On
Versions: 1 2 3 4 5 6 7 8 9 10 11 12 13 14 15 16 17 18 19 20 21 22 23 24 25 26 27 28 29 30 31 32 33 34 35 36 37 38 39 40 41 42 43 44 45 46 47 48 49 50
000
ASUS43 KMPX 142310
RWRMN
WEATHER ROUNDUP FOR MINNESOTA
NATIONAL WEATHER SERVICE TWIN CITIES/CHANHASSEN MN
500 PM CST SUN FEB 14 2016


NOTE: "FAIR" INDICATES FEW OR NO CLOUDS BELOW 12,000 FEET WITH NO
SIGNIFICANT WEATHER AND/OR OBSTRUCTIONS TO VISIBILITY. N/A MEANS
CURRENT SKY AND/OR WEATHER CONDITIONS ARE NOT AVAILABLE.

MNZ060>063-068>070-150000-
   Twin Cities Metro

CITY           SKY/WX    TMP DP  RH WIND       PRES   REMARKS
TWIN CITIES    LGT SNOW  19  12  74 S15G22    29.94R WCI   5
ST PAUL        LGT SNOW  19  13  77 S13       29.96R WCI   6
CRYSTAL        LGT SNOW  19  12  74 S16G24    29.92S WCI   4
BLAINE         LGT SNOW  19  16  86 SE9         N/A  WCI   9
LAKEVILLE      LGT SNOW  16  12  86 SE8       29.93R WCI   5
EDEN PRAIRIE   LGT SNOW  19  13  77 SE13      29.92R VSB 1   WCI   6
SOUTH ST PAUL  LGT SNOW  19  14  81 S7        29.95R WCI  10
LAKE ELMO      FLURRIES  19  14  79 S12       29.95R WCI   7
$$
MNZ001>005-007-008-013>017-022>024-027-028-150000-
   Northwest Minnesota

CITY           SKY/WX    TMP DP  RH WIND       PRES   REMARKS
BEMIDJI        LGT SNOW  15  11  85 S12G20    29.76F WCI   1
HALLOCK        CLOUDY    18  16  93 S14       29.73R WCI   4
ROSEAU         LGT SNOW  18  12  79 S10       29.75S WCI   6
WARROAD        LGT SNOW  16  10  79 S9        29.76S WCI   4
THIEF RVR FALL CLOUDY    16  16 100 S16       29.75F VSB 1   WCI   0
CROOKSTON      CLOUDY    18  16  93 S17       29.77S FOG     WCI   2
FOSSTON        LGT SNOW  14  10  85 S15       29.76S WCI  -1
DETROIT LAKES  MIX PCPN  18  14  86 S14       29.77S WCI   4
MOORHEAD       CLOUDY    18  16  93 S14       29.79R WCI   4
PARK RAPIDS    LGT SNOW  16  11  80 S12       29.77F VSB 1   WCI   3
MAHNOMEN       CLOUDY    16  13  87 S18       29.76R FOG     WCI   0
$$
MNZ006-009>011-018-025>026-150000-
   North Central Minnesota

CITY           SKY/WX    TMP DP  RH WIND       PRES   REMARKS
BAUDETTE       LGT SNOW  14   8  77 S9        29.76S VSB 1   WCI   2
FLAG ISLAND    LGT SNOW  12  10  92 S16       29.76R VSB 1   WCI  -4
INTL FALLS     SNOW      13   9  84 S6        29.81S VSB 1/2 WCI   4
WASKISH        LGT SNOW  14  10  85 SE6       29.78S WCI   5
LONGVILLE      LGT SNOW  14  10  85 SE9       29.82S WCI   2
GRAND RAPIDS   CLOUDY    12   9  85 SE10G16   29.83S WCI  -1
CRANE LAKE     CLOUDY    12  10  92 S5        29.87R VSB 1/2 WCI   4
ORR            LGT SNOW  12   7  79 S7        29.81S WCI   2
COOK           LGT SNOW  12   9  85 SE9       29.84S WCI   0
WALKER         LGT SNOW  15  10  82 S9        29.78F WCI   3
$$
MNZ012-019>021-037-150000-
   Northeast Minnesota

CITY           SKY/WX    TMP DP  RH WIND       PRES   REMARKS
DULUTH         LGT SNOW  14   7  73 S9        29.87S WCI   2
ELY            LGT SNOW  12   9  85 S12       29.84F VSB 1   WCI  -2
HIBBING        SNOW      11   8  88 SE8       29.85S VSB 1/2 WCI  -1
EVELETH        LGT SNOW  14   9  79 S9        29.86S VSB 3/4 WCI   2
DULUTH HARBOR  FLURRIES  19   9  63 S10       29.95S WCI   8
TWO HARBORS    CLOUDY    18  10  73 S6        29.89F WCI   9
SILVER BAY     SNOW      16  10  79 CALM      29.89F VSB 1/2
GRAND MARAIS     N/A     23  11  60 S10       29.96F WCI  12
G MARAIS ARPRT CLOUDY    14   3  62 S6        29.87F WCI   5
$$
MNZ029>031-032-039>041-046>048-054>057-064-150000-
   West Central Minnesota

CITY           SKY/WX    TMP DP  RH WIND       PRES   REMARKS
FERGUS FALLS   CLOUDY    18  14  86 S13       29.83S WCI   4
WHEATON        CLOUDY    21  18  86 S10       29.83R WCI  10
MORRIS         CLOUDY    19  16  86 S14       29.81R WCI   6
ALEXANDRIA     CLOUDY    17  13  84 S10       29.81S WCI   5
ELBOW LAKE     CLOUDY    17  14  86 S15       29.81S FOG     WCI   3
WADENA         LGT SNOW  16  12  86 S9        29.79F WCI   4
GLENWOOD       CLOUDY    18  16  93 S13       29.82F FOG     WCI   4
APPLETON       CLOUDY    21  16  79 S10       29.83R WCI  10
BENSON         CLOUDY    19  16  86 S8        29.84R WCI   9
ORTONVILLE       N/A     19  14  79 S8        29.82R WCI   9
MADISON        MOCLDY    21  16  79 S9        29.84R WCI  11
WILLMAR        CLOUDY    19  16  86 S9        29.86S WCI   9
$$
MNZ033>034-036-042>043-049>051-058-059-150000-
   Central Minnesota

CITY           SKY/WX    TMP DP  RH WIND       PRES   REMARKS
ST CLOUD       LGT SNOW  18  13  80 SE13      29.88F WCI   5
SAUK CENTRE    LGT SNOW  17  15  89 SE9       29.83F WCI   6
PAYNESVILLE    FLURRIES  19  15  86 SE10      29.85F WCI   7
AITKIN         LGT SNOW  18  10  73 S9        29.84S WCI   6
PINE RIVER     LGT SNOW  16  12  86 S12       29.85F WCI   3
BRAINERD       CLOUDY    16  11  80 S12       29.85S WCI   3
STAPLES        LGT SNOW  16  12  86 S12       29.81F WCI   3
LONG PRAIRIE   LGT SNOW  18  14  86 SE13      29.83S WCI   4
LITTLE FALLS   FLURRIES  19  14  79 S9        29.87S WCI   9
LITCHFIELD     CLOUDY    19  16  86 SE8       29.87F WCI   9
BUFFALO        LGT SNOW  19  15  86 SE6       29.91S WCI  10
MAPLE LAKE     LGT SNOW  19  16  88 SE7       29.90S VSB 3/4 WCI  10
$$
MNZ037-044-045-052-053-150000-
   East Central Minnesota

CITY           SKY/WX    TMP DP  RH WIND       PRES   REMARKS
PRINCETON      LGT SNOW  19  14  79 SE7       29.90R WCI  10
MORA           LGT SNOW  18  12  79 S8        29.92S WCI   7
CAMBRIDGE      LGT SNOW  19  10  68 S12       29.90S WCI   7
RUSH CITY      CLOUDY    18  11  75 S10       29.93R WCI   6
MOOSE LAKE     LGT SNOW  18  10  73 S8        29.88R WCI   7
HINCKLEY       LGT SNOW  19  12  73 SE13      29.91S WCI   7
CLOQUET        LGT SNOW  16   7  67 S5        29.87S WCI   9
MCGREGOR       CLOUDY    18  12  79 S7        29.87S VSB 1   WCI   8
$$
MNZ071>073-080-081-089-090-097-098-150000-
   Southwest Minnesota

CITY           SKY/WX    TMP DP  RH WIND       PRES   REMARKS
MONTEVIDEO     CLOUDY    19  16  86 SW6       29.86R WCI  11
GRANITE FALLS  CLOUDY    22  18  83 SE10      29.86S WCI  11
CANBY          CLOUDY    25  20  82 SW7       29.83R WCI  17
MARSHALL       CLOUDY    21  16  81 S9        29.84R WCI  11
REDWOOD FALLS  CLOUDY    20  15  81 S13       29.87R WCI   7
OLIVIA         CLOUDY    21  16  79 S10       29.86R WCI  10
PIPESTONE      CLOUDY    21  14  73 SW8       29.80R WCI  12
WINDOM         CLOUDY    19  16  86 S5        29.84R WCI  13
WORTHINGTON    CLOUDY    18  12  79 S10       29.84R WCI   6
JACKSON        CLOUDY    21  14  73 S9        29.85R WCI  11
TRACY          MOCLDY    21  17  82 S7        29.84R WCI  13
SLAYTON        CLOUDY    19  17  91 S9        29.82R WCI   8
$$
MNZ065>067-074>077-082>085-091>093-150000-
   South Central Minnesota

CITY           SKY/WX    TMP DP  RH WIND       PRES   REMARKS
MANKATO        CLOUDY    19  14  79 S13       29.89F WCI   7
NEW ULM        CLOUDY    19  14  79 SE13      29.87F WCI   7
ST JAMES       CLOUDY    21  18  86 SE12      29.88S WCI   9
FAIRMONT       CLOUDY    19  12  73 S14       29.86R WCI   6
GLENCOE        LGT SNOW  20  17  90 SE7       29.90R WCI  11
FARIBAULT      CLOUDY    18  12  79 SE12      29.92S WCI   5
OWATONNA       LGT SNOW  18  12  79 SE10G17   29.90F WCI   6
WASECA         LGT SNOW  19  14  79 SE12      29.91F WCI   7
ALBERT LEA     LGT SNOW  18  14  86 SE10      29.89F WCI   6
$$
MNZ078>079-086>088-094>096-150000-
   Southeast Minnesota

CITY           SKY/WX    TMP DP  RH WIND       PRES   REMARKS
ROCHESTER      LGT SNOW  16  10  77 SE15      29.91S WCI   1
RED WING       CLOUDY    19  12  73 SE9       29.95S WCI   9
STANTON        LGT SNOW  19  13  75 SE9G17    29.93R WCI   8
DODGE CENTER   LGT SNOW  16  12  86 S17       29.90S WCI   0
WINONA         FLURRIES  19  12  73 SE8       29.99S WCI   9
AUSTIN         LGT SNOW  18  14  86 SE10      29.90F WCI   6
PRESTON        FLURRIES  16  10  79 SE9       29.93S WCI   4
$$
ABBREVIATIONS USED IN REMARKS
   TC - TEMPERATURES IN CELSIUS
  WCI - WIND CHILL INDEX
   HX - HEAT INDEX
  VSB - VISIBILITY
$$



USA.gov is the U.S. government's official web portal to all federal, state and local government web resources and services.